weather.gov     
National Weather Service

Terminal Aerodrome Forecast
NWS Homepage
This page is being discontinued on March 12, 2014.
The same data is available at this site. Please update your bookmarks.
Thank you, and we apologize for the inconvenience.
Please send an email to SR-SRH.Webmaster@noaa.gov with any concerns.


Current Version
Previous Version:    01  02  03  04  05  06  07  08  09  10  11  12  13  14  15  16  17  18  19  20  21  22  23  24  25  26  27  28  29  30  
   31  32  33  34  35  
[Printable]
548
FTUS46 KPDT 261700
TAFYKM
TAF
KYKM 261722Z 2618/2718 VRB03KT 1/4SM FG VV002
      TEMPO 2618/2620 3SM BR OVC003
     FM262000 15003KT 5SM BR OVC010
     FM270200 VRB03KT 3SM BR OVC003
     FM270500 27004KT 1SM BR OVC002=


U.S. Dept. of Commerce
NOAA National Weather Service
1325 East West Highway
Silver Spring, MD 20910
E-mail: w-nws.webmaster@noaa.gov
Page last modified: May 16, 2007
NATIONAL WEATHER SERVICE: for Safety, for Work, for Fun - FOR LIFE